#Datum;Uhrzeit;WR;Pac;DaySum;Status;WR;Pac;DaySum;Status;Pdc1;Udc;Temp;WR;Pac;DaySum;Status;Pdc1;Udc;Temp;WR;Pac;DaySum;Status;Pdc1;Udc;Temp;WR;Pac;DaySum;Status;Pdc1;Pdc2;Udc1;Udc2;Temp;WR;Pac;DaySum;Status;Pdc1;Pdc2;Udc1;Udc2;Temp;WR;Pac;DaySum;Status;Pdc1;Udc;Temp;WR;Pac;DaySum;Status;Pdc1;Udc;Temp;WR;Pac;DaySum;Status;Pdc1;Udc;Temp
15.12.18;23:55:00;1;472;15869;0;2;0;1018;0;0;0;0;3;0;561;0;0;0;0;4;0;756;0;0;0;0;5;0;2516;0;0;0;0;0;0;6;0;1551;0;0;0;0;0;0;7;0;924;0;0;0;0;8;0;941;0;0;0;0;9;0;464;0;0;0;0
15.12.18;23:50:00;1;537;15829;0;2;0;1018;0;0;0;0;3;0;561;0;0;0;0;4;0;756;0;0;0;0;5;0;2516;0;0;0;0;0;0;6;0;1551;0;0;0;0;0;0;7;0;924;0;0;0;0;8;0;941;0;0;0;0;9;0;464;0;0;0;0
15.12.18;23:45:00;1;562;15785;0;2;0;1018;0;0;0;0;3;0;561;0;0;0;0;4;0;756;0;0;0;0;5;0;2516;0;0;0;0;0;0;6;0;1551;0;0;0;0;0;0;7;0;924;0;0;0;0;8;0;941;0;0;0;0;9;0;464;0;0;0;0
15.12.18;23:40:00;1;894;15739;0;2;0;1018;0;0;0;0;3;0;561;0;0;0;0;4;0;756;0;0;0;0;5;0;2516;0;0;0;0;0;0;6;0;1551;0;0;0;0;0;0;7;0;924;0;0;0;0;8;0;941;0;0;0;0;9;0;464;0;0;0;0
15.12.18;23:35:00;1;494;15666;0;2;0;1018;0;0;0;0;3;0;561;0;0;0;0;4;0;756;0;0;0;0;5;0;2516;0;0;0;0;0;0;6;0;1551;0;0;0;0;0;0;7;0;924;0;0;0;0;8;0;941;0;0;0;0;9;0;464;0;0;0;0
15.12.18;23:30:00;1;491;15625;0;2;0;1018;0;0;0;0;3;0;561;0;0;0;0;4;0;756;0;0;0;0;5;0;2516;0;0;0;0;0;0;6;0;1551;0;0;0;0;0;0;7;0;924;0;0;0;0;8;0;941;0;0;0;0;9;0;464;0;0;0;0
15.12.18;23:25:00;1;496;15584;0;2;0;1018;0;0;0;0;3;0;561;0;0;0;0;4;0;756;0;0;0;0;5;0;2516;0;0;0;0;0;0;6;0;1551;0;0;0;0;0;0;7;0;924;0;0;0;0;8;0;941;0;0;0;0;9;0;464;0;0;0;0
15.12.18;23:20:00;1;1101;15542;0;2;0;1018;0;0;0;0;3;0;561;0;0;0;0;4;0;756;0;0;0;0;5;0;2516;0;0;0;0;0;0;6;0;1551;0;0;0;0;0;0;7;0;924;0;0;0;0;8;0;941;0;0;0;0;9;0;464;0;0;0;0
15.12.18;23:15:00;1;472;15469;0;2;0;1018;0;0;0;0;3;0;561;0;0;0;0;4;0;756;0;0;0;0;5;0;2516;0;0;0;0;0;0;6;0;1551;0;0;0;0;0;0;7;0;924;0;0;0;0;8;0;941;0;0;0;0;9;0;464;0;0;0;0
15.12.18;23:10:00;1;428;15431;0;2;0;1018;0;0;0;0;3;0;561;0;0;0;0;4;0;756;0;0;0;0;5;0;2516;0;0;0;0;0;0;6;0;1551;0;0;0;0;0;0;7;0;924;0;0;0;0;8;0;941;0;0;0;0;9;0;464;0;0;0;0
15.12.18;23:05:00;1;433;15395;0;2;0;1018;0;0;0;0;3;0;561;0;0;0;0;4;0;756;0;0;0;0;5;0;2516;0;0;0;0;0;0;6;0;1551;0;0;0;0;0;0;7;0;924;0;0;0;0;8;0;941;0;0;0;0;9;0;464;0;0;0;0
15.12.18;23:00:00;1;685;15359;0;2;0;1018;0;0;0;0;3;0;561;0;0;0;0;4;0;756;0;0;0;0;5;0;2516;0;0;0;0;0;0;6;0;1551;0;0;0;0;0;0;7;0;924;0;0;0;0;8;0;941;0;0;0;0;9;0;464;0;0;0;0
15.12.18;22:55:00;1;475;15291;0;2;0;1018;0;0;0;0;3;0;561;0;0;0;0;4;0;756;0;0;0;0;5;0;2516;2;0;0;0;0;0;6;0;1551;2;0;0;0;0;0;7;0;924;0;0;0;0;8;0;941;0;0;0;0;9;0;464;0;0;0;0
15.12.18;22:50:00;1;479;15251;0;2;0;1018;0;0;0;0;3;0;561;0;0;0;0;4;0;756;0;0;0;0;5;0;2516;2;0;0;0;0;0;6;0;1551;2;0;0;0;0;0;7;0;924;0;0;0;0;8;0;941;0;0;0;0;9;0;464;0;0;0;0
15.12.18;22:45:00;1;429;15211;0;2;0;1018;0;0;0;0;3;0;561;0;0;0;0;4;0;756;0;0;0;0;5;0;2516;2;0;0;0;0;0;6;0;1551;2;0;0;0;0;0;7;0;924;0;0;0;0;8;0;941;0;0;0;0;9;0;464;0;0;0;0
15.12.18;22:40:00;1;434;15175;0;2;0;1018;0;0;0;0;3;0;561;0;0;0;0;4;0;756;0;0;0;0;5;0;2516;2;0;0;0;0;0;6;0;1551;2;0;0;0;0;0;7;0;924;0;0;0;0;8;0;941;0;0;0;0;9;0;464;0;0;0;0
15.12.18;22:35:00;1;1619;15135;0;2;0;1018;0;0;0;0;3;0;561;0;0;0;0;4;0;756;0;0;0;0;5;0;2516;2;0;0;0;0;0;6;0;1551;2;0;0;0;0;0;7;0;924;0;0;0;0;8;0;941;0;0;0;0;9;0;464;0;0;0;0
15.12.18;22:30:00;1;2318;15008;0;2;0;1018;0;0;0;0;3;0;561;0;0;0;0;4;0;756;0;0;0;0;5;0;2516;2;0;0;0;0;0;6;0;1551;2;0;0;0;0;0;7;0;924;0;0;0;0;8;0;941;0;0;0;0;9;0;464;0;0;0;0
15.12.18;22:25:00;1;2319;14814;0;2;0;1018;0;0;0;0;3;0;561;0;0;0;0;4;0;756;0;0;0;0;5;0;2516;2;0;0;0;0;0;6;0;1551;2;0;0;0;0;0;7;0;924;0;0;0;0;8;0;941;0;0;0;0;9;0;464;0;0;0;0
15.12.18;22:20:00;1;2085;14620;0;2;0;1018;0;0;0;0;3;0;561;0;0;0;0;4;0;756;0;0;0;0;5;0;2516;2;0;0;0;0;0;6;0;1551;2;0;0;0;0;0;7;0;924;0;0;0;0;8;0;941;0;0;0;0;9;0;464;0;0;0;0
15.12.18;22:15:00;1;2238;14477;0;2;0;1018;0;0;0;0;3;0;561;0;0;0;0;4;0;756;0;0;0;0;5;0;2516;2;0;0;0;0;0;6;0;1551;2;0;0;0;0;0;7;0;924;0;0;0;0;8;0;941;0;0;0;0;9;0;464;0;0;0;0
15.12.18;22:10:00;1;762;14307;0;2;0;1018;0;0;0;0;3;0;561;0;0;0;0;4;0;756;0;0;0;0;5;0;2516;2;0;0;0;0;0;6;0;1551;2;0;0;0;0;0;7;0;924;0;0;0;0;8;0;941;0;0;0;0;9;0;464;0;0;0;0
15.12.18;22:05:00;1;592;14260;0;2;0;1018;0;0;0;0;3;0;561;0;0;0;0;4;0;756;0;0;0;0;5;0;2516;2;0;0;0;0;0;6;0;1551;2;0;0;0;0;0;7;0;924;0;0;0;0;8;0;941;0;0;0;0;9;0;464;0;0;0;0
15.12.18;22:00:00;1;1170;14210;0;2;0;1018;0;0;0;0;3;0;561;0;0;0;0;4;0;756;0;0;0;0;5;0;2516;2;0;0;0;0;0;6;0;1551;2;0;0;0;0;0;7;0;924;0;0;0;0;8;0;941;0;0;0;0;9;0;464;0;0;0;0
15.12.18;21:55:00;1;2468;14081;0;2;0;1018;0;0;0;0;3;0;561;0;0;0;0;4;0;756;0;0;0;0;5;0;2516;2;0;0;0;0;0;6;0;1551;2;0;0;0;0;0;7;0;924;0;0;0;0;8;0;941;0;0;0;0;9;0;464;0;0;0;0
15.12.18;21:50:00;1;592;13887;0;2;0;1018;0;0;0;0;3;0;561;0;0;0;0;4;0;756;0;0;0;0;5;0;2516;2;0;0;0;0;0;6;0;1551;2;0;0;0;0;0;7;0;924;0;0;0;0;8;0;941;0;0;0;0;9;0;464;0;0;0;0
15.12.18;21:45:00;1;2523;13827;0;2;0;1018;0;0;0;0;3;0;561;0;0;0;0;4;0;756;0;0;0;0;5;0;2516;2;0;0;0;0;0;6;0;1551;2;0;0;0;0;0;7;0;924;0;0;0;0;8;0;941;0;0;0;0;9;0;464;0;0;0;0
15.12.18;21:40:00;1;1978;13617;0;2;0;1018;0;0;0;0;3;0;561;0;0;0;0;4;0;756;0;0;0;0;5;0;2516;2;0;0;0;0;0;6;0;1551;2;0;0;0;0;0;7;0;924;0;0;0;0;8;0;941;0;0;0;0;9;0;464;0;0;0;0
15.12.18;21:35:00;1;1268;13489;0;2;0;1018;0;0;0;0;3;0;561;0;0;0;0;4;0;756;0;0;0;0;5;0;2516;2;0;0;0;0;0;6;0;1551;2;0;0;0;0;0;7;0;924;0;0;0;0;8;0;941;0;0;0;0;9;0;464;0;0;0;0
15.12.18;21:30:00;1;2712;13370;0;2;0;1018;0;0;0;0;3;0;561;0;0;0;0;4;0;756;0;0;0;0;5;0;2516;2;0;0;0;0;0;6;0;1551;2;0;0;0;0;0;7;0;924;0;0;0;0;8;0;941;0;0;0;0;9;0;464;0;0;0;0
15.12.18;21:25:00;1;2329;13137;0;2;0;1018;0;0;0;0;3;0;561;0;0;0;0;4;0;756;0;0;0;0;5;0;2516;2;0;0;0;0;0;6;0;1551;2;0;0;0;0;0;7;0;924;0;0;0;0;8;0;941;0;0;0;0;9;0;464;0;0;0;0
15.12.18;21:20:00;1;510;12984;0;2;0;1018;0;0;0;0;3;0;561;0;0;0;0;4;0;756;0;0;0;0;5;0;2516;2;0;0;0;0;0;6;0;1551;2;0;0;0;0;0;7;0;924;0;0;0;0;8;0;941;0;0;0;0;9;0;464;0;0;0;0
15.12.18;21:15:00;1;1349;12941;0;2;0;1018;0;0;0;0;3;0;561;0;0;0;0;4;0;756;0;0;0;0;5;0;2516;2;0;0;0;0;0;6;0;1551;2;0;0;0;0;0;7;0;924;0;0;0;0;8;0;941;0;0;0;0;9;0;464;0;0;0;0
15.12.18;21:10:00;1;1243;12811;0;2;0;1018;0;0;0;0;3;0;561;0;0;0;0;4;0;756;0;0;0;0;5;0;2516;2;0;0;0;0;0;6;0;1551;2;0;0;0;0;0;7;0;924;0;0;0;0;8;0;941;0;0;0;0;9;0;464;0;0;0;0
15.12.18;21:05:00;1;595;12732;0;2;0;1018;0;0;0;0;3;0;561;0;0;0;0;4;0;756;0;0;0;0;5;0;2516;2;0;0;0;0;0;6;0;1551;2;0;0;0;0;0;7;0;924;0;0;0;0;8;0;941;0;0;0;0;9;0;464;0;0;0;0
15.12.18;21:00:00;1;552;12684;0;2;0;1018;0;0;0;0;3;0;561;0;0;0;0;4;0;756;0;0;0;0;5;0;2516;2;0;0;0;0;0;6;0;1551;2;0;0;0;0;0;7;0;924;0;0;0;0;8;0;941;0;0;0;0;9;0;464;0;0;0;0
15.12.18;20:55:00;1;532;12638;0;2;0;1018;0;0;0;0;3;0;561;0;0;0;0;4;0;756;0;0;0;0;5;0;2516;2;0;0;0;0;0;6;0;1551;2;0;0;0;0;0;7;0;924;0;0;0;0;8;0;941;0;0;0;0;9;0;464;0;0;0;0
15.12.18;20:50:00;1;709;12593;0;2;0;1018;0;0;0;0;3;0;561;0;0;0;0;4;0;756;0;0;0;0;5;0;2516;2;0;0;0;0;0;6;0;1551;2;0;0;0;0;0;7;0;924;0;0;0;0;8;0;941;0;0;0;0;9;0;464;0;0;0;0
15.12.18;20:45:00;1;498;12524;0;2;0;1018;0;0;0;0;3;0;561;0;0;0;0;4;0;756;0;0;0;0;5;0;2516;2;0;0;0;0;0;6;0;1551;2;0;0;0;0;0;7;0;924;0;0;0;0;8;0;941;0;0;0;0;9;0;464;0;0;0;0
15.12.18;20:40:00;1;510;12481;0;2;0;1018;0;0;0;0;3;0;561;0;0;0;0;4;0;756;0;0;0;0;5;0;2516;2;0;0;0;0;0;6;0;1551;2;0;0;0;0;0;7;0;924;0;0;0;0;8;0;941;0;0;0;0;9;0;464;0;0;0;0
15.12.18;20:35:00;1;509;12439;0;2;0;1018;0;0;0;0;3;0;561;0;0;0;0;4;0;756;0;0;0;0;5;0;2516;2;0;0;0;0;0;6;0;1551;2;0;0;0;0;0;7;0;924;0;0;0;0;8;0;941;0;0;0;0;9;0;464;0;0;0;0
15.12.18;20:30:00;1;716;12396;0;2;0;1018;0;0;0;0;3;0;561;0;0;0;0;4;0;756;0;0;0;0;5;0;2516;2;0;0;0;0;0;6;0;1551;2;0;0;0;0;0;7;0;924;0;0;0;0;8;0;941;0;0;0;0;9;0;464;0;0;0;0
15.12.18;20:25:00;1;716;12327;0;2;0;1018;0;0;0;0;3;0;561;0;0;0;0;4;0;756;0;0;0;0;5;0;2516;2;0;0;0;0;0;6;0;1551;2;0;0;0;0;0;7;0;924;0;0;0;0;8;0;941;0;0;0;0;9;0;464;0;0;0;0
15.12.18;20:20:00;1;914;12282;0;2;0;1018;0;0;0;0;3;0;561;0;0;0;0;4;0;756;0;0;0;0;5;0;2516;2;0;0;0;0;0;6;0;1551;2;0;0;0;0;0;7;0;924;0;0;0;0;8;0;941;0;0;0;0;9;0;464;0;0;0;0
15.12.18;20:15:00;1;953;12170;0;2;0;1018;0;0;0;0;3;0;561;0;0;0;0;4;0;756;0;0;0;0;5;0;2516;2;0;0;0;0;0;6;0;1551;2;0;0;0;0;0;7;0;924;0;0;0;0;8;0;941;0;0;0;0;9;0;464;0;0;0;0
15.12.18;20:10:00;1;1385;12065;0;2;0;1018;0;0;0;0;3;0;561;0;0;0;0;4;0;756;0;0;0;0;5;0;2516;2;0;0;0;0;0;6;0;1551;2;0;0;0;0;0;7;0;924;0;0;0;0;8;0;941;0;0;0;0;9;0;464;0;0;0;0
15.12.18;20:05:00;1;1399;11931;0;2;0;1018;0;0;0;0;3;0;561;0;0;0;0;4;0;756;0;0;0;0;5;0;2516;2;0;0;0;0;0;6;0;1551;2;0;0;0;0;0;7;0;924;0;0;0;0;8;0;941;0;0;0;0;9;0;464;0;0;0;0
15.12.18;20:00:00;1;1536;11792;0;2;0;1018;0;0;0;0;3;0;561;0;0;0;0;4;0;756;0;0;0;0;5;0;2516;2;0;0;0;0;0;6;0;1551;2;0;0;0;0;0;7;0;924;0;0;0;0;8;0;941;0;0;0;0;9;0;464;0;0;0;0
15.12.18;19:55:00;1;1188;11679;0;2;0;1018;0;0;0;0;3;0;561;0;0;0;0;4;0;756;0;0;0;0;5;0;2516;2;0;0;0;0;0;6;0;1551;2;0;0;0;0;0;7;0;924;0;0;0;0;8;0;941;0;0;0;0;9;0;464;0;0;0;0
15.12.18;19:50:00;1;1264;11565;0;2;0;1018;0;0;0;0;3;0;561;0;0;0;0;4;0;756;0;0;0;0;5;0;2516;2;0;0;0;0;0;6;0;1551;2;0;0;0;0;0;7;0;924;0;0;0;0;8;0;941;0;0;0;0;9;0;464;0;0;0;0
15.12.18;19:45:00;1;1432;11425;0;2;0;1018;0;0;0;0;3;0;561;0;0;0;0;4;0;756;0;0;0;0;5;0;2516;2;0;0;0;0;0;6;0;1551;2;0;0;0;0;0;7;0;924;0;0;0;0;8;0;941;0;0;0;0;9;0;464;0;0;0;0
15.12.18;19:40:00;1;929;11301;0;2;0;1018;0;0;0;0;3;0;561;0;0;0;0;4;0;756;0;0;0;0;5;0;2516;2;0;0;0;0;0;6;0;1551;2;0;0;0;0;0;7;0;924;0;0;0;0;8;0;941;0;0;0;0;9;0;464;0;0;0;0
15.12.18;19:35:00;1;1437;11202;0;2;0;1018;0;0;0;0;3;0;561;0;0;0;0;4;0;756;0;0;0;0;5;0;2516;2;0;0;0;0;0;6;0;1551;2;0;0;0;0;0;7;0;924;0;0;0;0;8;0;941;0;0;0;0;9;0;464;0;0;0;0
15.12.18;19:30:00;1;1887;11112;0;2;0;1018;0;0;0;0;3;0;561;0;0;0;0;4;0;756;0;0;0;0;5;0;2516;2;0;0;0;0;0;6;0;1551;2;0;0;0;0;0;7;0;924;0;0;0;0;8;0;941;0;0;0;0;9;0;464;0;0;0;0
15.12.18;19:25:00;1;1506;10996;0;2;0;1018;0;0;0;0;3;0;561;0;0;0;0;4;0;756;0;0;0;0;5;0;2516;2;0;0;0;0;0;6;0;1551;2;0;0;0;0;0;7;0;924;0;0;0;0;8;0;941;0;0;0;0;9;0;464;0;0;0;0
15.12.18;19:20:00;1;1559;10872;0;2;0;1018;0;0;0;0;3;0;561;0;0;0;0;4;0;756;0;0;0;0;5;0;2516;2;0;0;0;0;0;6;0;1551;2;0;0;0;0;0;7;0;924;0;0;0;0;8;0;941;0;0;0;0;9;0;464;0;0;0;0
15.12.18;19:15:00;1;1596;10760;0;2;0;1018;0;0;0;0;3;0;561;0;0;0;0;4;0;756;0;0;0;0;5;0;2516;2;0;0;0;0;0;6;0;1551;2;0;0;0;0;0;7;0;924;0;0;0;0;8;0;941;0;0;0;0;9;0;464;0;0;0;0
15.12.18;19:10:00;1;1282;10627;0;2;0;1018;0;0;0;0;3;0;561;0;0;0;0;4;0;756;0;0;0;0;5;0;2516;2;0;0;0;0;0;6;0;1551;2;0;0;0;0;0;7;0;924;0;0;0;0;8;0;941;0;0;0;0;9;0;464;0;0;0;0
15.12.18;19:05:00;1;1791;10502;0;2;0;1018;0;0;0;0;3;0;561;0;0;0;0;4;0;756;0;0;0;0;5;0;2516;2;0;0;0;0;0;6;0;1551;2;0;0;0;0;0;7;0;924;0;0;0;0;8;0;941;0;0;0;0;9;0;464;0;0;0;0
15.12.18;19:00:00;1;1221;10355;0;2;0;1018;0;0;0;0;3;0;561;0;0;0;0;4;0;756;0;0;0;0;5;0;2516;2;0;0;0;0;0;6;0;1551;2;0;0;0;0;0;7;0;924;0;0;0;0;8;0;941;0;0;0;0;9;0;464;0;0;0;0
15.12.18;18:55:00;1;552;10228;0;2;0;1018;0;0;0;0;3;0;561;0;0;0;0;4;0;756;0;0;0;0;5;0;2516;2;0;0;0;0;0;6;0;1551;2;0;0;0;0;0;7;0;924;0;0;0;0;8;0;941;0;0;0;0;9;0;464;0;0;0;0
15.12.18;18:50:00;1;892;10152;0;2;0;1018;0;0;0;0;3;0;561;0;0;0;0;4;0;756;0;0;0;0;5;0;2516;2;0;0;0;0;0;6;0;1551;2;0;0;0;0;0;7;0;924;0;0;0;0;8;0;941;0;0;0;0;9;0;464;0;0;0;0
15.12.18;18:45:00;1;2223;10067;0;2;0;1018;0;0;0;0;3;0;561;0;0;0;0;4;0;756;0;0;0;0;5;0;2516;2;0;0;0;0;0;6;0;1551;2;0;0;0;0;0;7;0;924;0;0;0;0;8;0;941;0;0;0;0;9;0;464;0;0;0;0
15.12.18;18:40:00;1;2245;9844;0;2;0;1018;0;0;0;0;3;0;561;0;0;0;0;4;0;756;0;0;0;0;5;0;2516;2;0;0;0;0;0;6;0;1551;2;0;0;0;0;0;7;0;924;0;0;0;0;8;0;941;0;0;0;0;9;0;464;0;0;0;0
15.12.18;18:35:00;1;495;9716;0;2;0;1018;0;0;0;0;3;0;561;0;0;0;0;4;0;756;0;0;0;0;5;0;2516;2;0;0;0;0;0;6;0;1551;2;0;0;0;0;0;7;0;924;0;0;0;0;8;0;941;0;0;0;0;9;0;464;0;0;0;0
15.12.18;18:30:00;1;482;9675;0;2;0;1018;0;0;0;0;3;0;561;0;0;0;0;4;0;756;0;0;0;0;5;0;2516;2;0;0;0;0;0;6;0;1551;2;0;0;0;0;0;7;0;924;0;0;0;0;8;0;941;0;0;0;0;9;0;464;0;0;0;0
15.12.18;18:25:00;1;911;9622;0;2;0;1018;0;0;0;0;3;0;561;0;0;0;0;4;0;756;0;0;0;0;5;0;2516;2;0;0;0;0;0;6;0;1551;2;0;0;0;0;0;7;0;924;0;0;0;0;8;0;941;0;0;0;0;9;0;464;0;0;0;0
15.12.18;18:20:00;1;583;9556;0;2;0;1018;0;0;0;0;3;0;561;0;0;0;0;4;0;756;0;0;0;0;5;0;2516;2;0;0;0;0;0;6;0;1551;2;0;0;0;0;0;7;0;924;0;0;0;0;8;0;941;0;0;0;0;9;0;464;0;0;0;0
15.12.18;18:15:00;1;602;9507;0;2;0;1018;0;0;0;0;3;0;561;0;0;0;0;4;0;756;0;0;0;0;5;0;2516;2;0;0;0;0;0;6;0;1551;2;0;0;0;0;0;7;0;924;0;0;0;0;8;0;941;0;0;0;0;9;0;464;0;0;0;0
15.12.18;18:10:00;1;1045;9457;0;2;0;1018;0;0;0;0;3;0;561;0;0;0;0;4;0;756;0;0;0;0;5;0;2516;2;0;0;0;0;0;6;0;1551;2;0;0;0;0;0;7;0;924;0;0;0;0;8;0;941;0;0;0;0;9;0;464;0;0;0;0
15.12.18;18:05:00;1;1098;9369;0;2;0;1018;0;0;0;0;3;0;561;0;0;0;0;4;0;756;0;0;0;0;5;0;2516;2;0;0;0;0;0;6;0;1551;2;0;0;0;0;0;7;0;924;0;0;0;0;8;0;941;0;0;0;0;9;0;464;0;0;0;0
15.12.18;18:00:00;1;1821;9257;0;2;0;1018;0;0;0;0;3;0;561;0;0;0;0;4;0;756;0;0;0;0;5;0;2516;2;0;0;0;0;0;6;0;1551;2;0;0;0;0;0;7;0;924;0;0;0;0;8;0;941;0;0;0;0;9;0;464;0;0;0;0
15.12.18;17:55:00;1;2177;9127;0;2;0;1018;0;0;0;0;3;0;561;0;0;0;0;4;0;756;0;0;0;0;5;0;2516;2;0;0;0;0;0;6;0;1551;2;0;0;0;0;0;7;0;924;0;0;0;0;8;0;941;0;0;0;0;9;0;464;0;0;0;0
15.12.18;17:50:00;1;3423;8908;0;2;0;1018;0;0;0;0;3;0;561;0;0;0;0;4;0;756;0;0;0;0;5;0;2516;2;0;0;0;0;0;6;0;1551;2;0;0;0;0;0;7;0;924;0;0;0;0;8;0;941;0;0;0;0;9;0;464;0;0;0;0
15.12.18;17:45:00;1;2728;8641;0;2;0;1018;0;0;0;0;3;0;561;0;0;0;0;4;0;756;0;0;0;0;5;0;2516;2;0;0;0;0;0;6;0;1551;2;0;0;0;0;0;7;0;924;0;0;0;0;8;0;941;0;0;0;0;9;0;464;0;0;0;0
15.12.18;17:40:00;1;949;8431;0;2;0;1018;0;0;0;0;3;0;561;0;0;0;0;4;0;756;0;0;0;0;5;0;2516;2;0;0;0;0;0;6;0;1551;2;0;0;0;0;0;7;0;924;0;0;0;0;8;0;941;0;0;0;0;9;0;464;0;0;0;0
15.12.18;17:35:00;1;1105;8339;0;2;0;1018;0;0;0;0;3;0;561;0;0;0;0;4;0;756;0;0;0;0;5;0;2516;2;0;0;0;0;0;6;0;1551;2;0;0;0;0;0;7;0;924;0;0;0;0;8;0;941;0;0;0;0;9;0;464;0;0;0;0
15.12.18;17:30:00;1;592;8276;0;2;0;1018;0;0;0;0;3;0;561;0;0;0;0;4;0;756;0;0;0;0;5;0;2516;2;0;0;0;0;0;6;0;1551;2;0;0;0;0;0;7;0;924;0;0;0;0;8;0;941;0;0;0;0;9;0;464;0;0;0;0
15.12.18;17:25:00;1;687;8226;0;2;0;1018;0;0;0;0;3;0;561;0;0;0;0;4;0;756;0;0;0;0;5;0;2516;2;0;0;0;0;0;6;0;1551;2;0;0;0;0;0;7;0;924;0;0;0;0;8;0;941;0;0;0;0;9;0;464;0;0;0;0
15.12.18;17:20:00;1;1188;8167;0;2;0;1018;0;0;0;0;3;0;561;0;0;0;0;4;0;756;0;0;0;0;5;0;2516;2;0;0;0;0;0;6;0;1551;2;0;0;0;0;0;7;0;924;0;0;0;0;8;0;941;0;0;0;0;9;0;464;0;0;0;0
15.12.18;17:15:00;1;658;8075;0;2;0;1018;0;0;0;0;3;0;561;0;0;0;0;4;0;756;0;0;0;0;5;0;2516;2;0;0;0;0;0;6;0;1551;2;0;0;0;0;0;7;0;924;0;0;0;0;8;0;941;0;0;0;0;9;0;464;0;0;0;0
15.12.18;17:10:00;1;670;8020;0;2;0;1018;0;0;0;0;3;0;561;0;0;0;0;4;0;756;0;0;0;0;5;0;2516;2;0;0;0;0;0;6;0;1551;2;0;0;0;0;0;7;0;924;0;0;0;0;8;0;941;0;0;0;0;9;0;464;0;0;0;0
15.12.18;17:05:00;1;1176;7965;0;2;0;1018;0;0;0;0;3;0;561;0;0;0;0;4;0;756;0;0;0;0;5;0;2516;2;0;0;0;0;0;6;0;1551;2;0;0;0;0;0;7;0;924;0;0;0;0;8;0;941;0;0;0;0;9;0;464;0;0;0;0
15.12.18;17:00:00;1;699;7878;0;2;0;1018;0;0;0;0;3;0;561;0;0;0;0;4;0;756;0;0;0;0;5;0;2516;2;0;0;0;0;0;6;0;1551;2;0;0;0;0;0;7;0;924;0;0;0;0;8;0;941;0;0;0;0;9;0;464;0;0;0;0
15.12.18;16:55:00;1;619;7823;0;2;0;1018;0;0;0;0;3;0;561;0;0;0;0;4;0;756;0;0;0;0;5;0;2516;2;0;0;0;0;0;6;0;1551;2;0;0;0;0;0;7;0;924;0;0;0;0;8;0;941;0;0;0;0;9;0;464;0;0;0;0
15.12.18;16:50:00;1;628;7771;0;2;0;1018;0;0;0;0;3;0;561;0;0;0;0;4;0;756;0;0;0;0;5;0;2516;2;0;0;0;0;0;6;0;1551;2;0;0;0;0;0;7;0;924;0;0;0;0;8;0;941;0;0;0;0;9;0;464;0;0;0;0
15.12.18;16:45:00;1;1139;7719;0;2;0;1018;0;0;0;0;3;0;561;0;0;0;0;4;0;756;0;0;0;0;5;0;2516;2;0;0;0;0;0;6;0;1551;2;0;0;0;0;0;7;0;924;0;0;0;0;8;0;941;0;0;0;0;9;0;464;0;0;0;0
15.12.18;16:40:00;1;575;7640;0;2;0;1018;0;0;0;0;3;0;561;0;0;0;0;4;0;756;0;0;0;0;5;0;2516;2;0;0;0;0;0;6;0;1551;2;0;0;0;0;0;7;0;924;0;0;0;0;8;0;941;0;0;0;0;9;0;464;0;0;0;0
15.12.18;16:35:00;1;560;7592;0;2;0;1018;0;0;0;0;3;0;561;0;0;0;0;4;0;756;0;0;0;0;5;0;2516;2;0;0;0;0;0;6;0;1551;2;0;0;0;0;0;7;0;924;0;0;0;0;8;0;941;0;0;0;0;9;0;464;0;0;0;0
15.12.18;16:30:00;1;667;7545;0;2;0;1018;0;0;0;0;3;0;561;0;0;128;5;4;0;756;0;0;0;0;5;0;2516;2;0;0;0;0;0;6;0;1551;2;0;0;0;0;0;7;0;924;0;0;0;0;8;0;941;0;0;0;0;9;0;464;0;0;0;0
15.12.18;16:25:00;1;620;7485;0;2;0;1018;6;0;272;7;3;0;561;6;0;297;11;4;0;756;0;0;0;0;5;0;2516;2;0;0;0;0;0;6;0;1551;2;0;0;0;0;0;7;0;924;0;0;0;0;8;0;941;0;0;0;0;9;0;464;0;0;0;0
15.12.18;16:20:00;1;1047;7426;0;2;0;1018;6;0;305;7;3;0;561;6;0;351;11;4;0;756;2;0;77;5;5;0;2516;2;0;1;34;33;5;6;0;1551;2;0;0;0;0;0;7;0;924;0;0;0;0;8;0;941;0;0;0;0;9;0;464;0;0;0;0
15.12.18;16:15:00;1;698;7353;0;2;0;1018;6;0;332;7;3;0;561;6;0;404;11;4;0;756;1;0;101;5;5;0;2516;1;0;2;218;216;11;6;0;1551;2;4;2;156;213;10;7;0;924;0;0;0;0;8;0;941;0;0;0;0;9;0;464;0;0;0;0
15.12.18;16:10:00;1;528;7306;0;2;0;1018;6;0;354;7;3;0;561;6;0;421;11;4;0;756;1;0;125;5;5;0;2516;26;0;0;383;432;17;6;0;1551;23;6;3;506;180;16;7;0;924;0;0;154;6;8;0;941;0;0;206;7;9;0;464;6;0;276;6
15.12.18;16:05:00;1;549;7262;0;2;0;1018;6;0;372;7;3;0;561;4;1;435;11;4;0;756;1;0;150;5;5;0;2516;23;0;1;407;426;18;6;0;1551;23;6;4;181;539;17;7;0;924;6;0;292;10;8;0;941;6;0;297;9;9;0;464;0;0;213;4
15.12.18;16:00:00;1;883;7216;0;2;0;1018;6;0;386;7;3;0;561;3;4;436;11;4;0;756;1;0;175;5;5;7;2516;26;0;1;412;631;18;6;0;1551;23;4;2;181;562;17;7;0;924;6;0;337;10;8;0;941;6;0;275;8;9;0;464;6;0;363;7
15.12.18;15:55:00;1;511;7145;0;2;0;1018;6;0;399;8;3;0;561;6;2;485;11;4;0;756;1;0;201;6;5;8;2515;26;1;3;424;658;18;6;0;1551;23;6;4;182;581;17;7;0;924;6;0;382;10;8;0;941;6;0;389;10;9;0;464;6;0;409;7
15.12.18;15:50:00;1;501;7102;0;2;2;1018;6;3;401;8;3;1;561;6;3;486;11;4;0;756;1;0;211;6;5;13;2515;26;2;3;429;680;18;6;0;1551;23;5;3;182;594;18;7;0;924;6;0;408;10;8;0;941;6;0;415;10;9;1;464;3;0;422;7
15.12.18;15:45:00;1;349;7061;0;2;0;1017;6;4;409;8;3;1;561;6;3;512;11;4;0;756;3;0;217;6;5;77;2513;4;19;22;384;609;19;6;28;1551;1;16;18;541;516;19;7;0;924;6;0;440;10;8;0;941;6;2;429;10;9;0;464;6;0;484;7
15.12.18;15:40:00;1;279;7031;0;2;2;1017;6;7;413;8;3;2;561;6;5;517;11;4;0;756;3;0;227;6;5;91;2506;4;30;29;384;609;19;6;57;1549;4;17;19;463;432;19;7;0;924;6;0;476;10;8;0;941;6;0;481;10;9;1;464;6;2;476;7
15.12.18;15:35:00;1;328;7008;0;2;7;1017;6;15;409;8;3;2;561;6;5;529;11;4;0;756;3;0;235;6;5;111;2498;4;42;38;384;609;19;6;67;1544;4;27;29;463;432;19;7;1;924;3;6;451;11;8;1;941;3;1;225;5;9;0;464;6;2;521;7
15.12.18;15:30:00;1;299;6982;0;2;6;1017;6;10;421;8;3;3;560;3;14;497;11;4;0;756;3;0;200;7;5;123;2489;4;51;42;384;609;19;6;80;1538;4;39;39;463;432;19;7;2;924;6;5;475;11;8;0;941;6;5;479;10;9;1;464;6;4;527;7
15.12.18;15:25:00;1;263;6930;0;2;5;1016;6;9;426;8;3;1;560;6;7;538;11;4;2;756;3;2;200;7;5;136;2478;4;59;51;384;609;19;6;86;1531;4;44;46;463;432;19;7;2;924;6;6;486;11;8;2;941;6;7;485;10;9;0;464;6;3;539;7
15.12.18;15:20:00;1;269;6908;0;2;7;1016;3;12;425;9;3;2;560;6;10;537;11;4;2;756;3;2;200;7;5;146;2467;4;61;49;384;609;19;6;93;1524;4;47;48;463;432;19;7;4;924;6;8;488;11;8;3;941;6;9;489;10;9;3;464;3;10;506;7
15.12.18;15:15:00;1;237;6890;0;2;15;1015;6;23;416;9;3;6;560;6;16;516;12;4;8;755;3;8;200;7;5;153;2455;4;64;53;384;609;19;6;99;1516;4;47;50;463;432;19;7;2;923;6;7;495;11;8;3;941;6;7;496;11;9;3;464;6;4;546;7
15.12.18;15:10:00;1;227;6869;0;2;51;1014;4;74;358;9;3;4;559;6;10;542;12;4;15;755;3;16;199;7;5;168;2442;4;69;60;384;609;19;6;103;1507;4;39;43;463;432;19;7;0;923;6;0;520;11;8;0;940;6;0;521;11;9;2;463;6;6;546;7
15.12.18;15:05:00;1;213;6850;0;2;56;1009;4;82;369;9;3;4;559;6;10;549;12;4;18;753;3;18;199;7;5;179;2428;4;79;68;384;609;19;6;110;1499;4;50;55;463;432;19;7;10;923;4;19;477;12;8;13;940;4;19;476;11;9;4;463;6;11;526;7
15.12.18;15:00:00;1;213;6833;0;2;63;1005;4;85;369;9;3;5;559;3;12;546;12;4;20;752;3;21;198;7;5;182;2413;4;82;74;384;609;19;6;120;1489;4;63;69;463;432;19;7;7;922;6;11;492;12;8;9;939;3;11;493;11;9;4;463;6;6;551;7
15.12.18;14:55:00;1;922;6813;0;2;70;999;4;93;380;9;3;6;558;6;11;552;12;4;33;750;3;34;198;7;5;204;2398;4;100;82;384;609;19;6;128;1479;4;61;64;463;432;19;7;46;921;4;70;362;12;8;46;938;4;74;374;11;9;3;462;6;7;560;7
15.12.18;14:50:00;1;215;6768;0;2;77;994;4;98;381;9;3;7;557;6;13;551;12;4;29;747;3;30;198;7;5;211;2381;4;104;92;384;609;19;6;137;1468;4;71;78;463;432;19;7;38;918;4;77;415;12;8;53;934;4;79;422;11;9;4;462;3;9;558;8
15.12.18;14:45:00;1;289;6749;0;2;78;987;4;101;382;9;3;7;557;6;11;556;12;4;31;745;3;33;198;7;5;217;2363;4;106;95;384;609;19;6;140;1457;4;67;71;463;432;19;7;51;914;4;80;422;12;8;50;930;4;80;433;11;9;5;462;6;8;560;8
15.12.18;14:40:00;1;329;6724;0;2;84;981;4;107;379;9;3;8;556;6;14;552;12;4;49;742;3;51;198;7;5;228;2345;4;114;99;384;609;19;6;145;1445;4;80;79;463;432;19;7;68;910;4;86;446;12;8;56;926;4;84;456;11;9;7;461;6;10;561;8
15.12.18;14:35:00;1;460;6694;0;2;95;974;4;120;371;9;3;8;556;6;13;561;12;4;58;738;3;60;198;7;5;248;2326;4;120;101;384;609;19;6;160;1433;4;80;78;463;432;19;7;69;904;4;99;424;12;8;71;921;4;98;413;11;9;7;461;6;10;568;8
15.12.18;14:30:00;1;464;6655;0;2;109;966;4;134;371;9;3;60;555;4;92;457;13;4;70;733;3;73;198;7;5;279;2305;4;133;117;384;609;19;6;174;1419;4;90;91;463;432;19;7;93;899;4;117;442;12;8;85;915;4;120;420;11;9;10;460;6;13;566;8
15.12.18;14:25:00;1;891;6616;0;2;120;957;4;147;377;9;3;66;550;4;102;461;13;4;73;727;3;76;199;7;5;297;2282;4;144;126;384;609;19;6;192;1404;4;120;118;463;432;19;7;104;891;4;133;451;12;8;101;908;4;131;400;11;9;8;460;6;12;576;8
15.12.18;14:20:00;1;421;6553;0;2;138;947;4;166;391;9;3;80;545;4;114;479;13;4;96;721;3;99;226;7;5;324;2257;4;164;138;384;609;19;6;210;1388;4;84;84;463;432;19;7;115;882;4;152;456;12;8;120;899;4;153;415;11;9;0;459;0;0;485;6
15.12.18;14:15:00;1;417;6518;0;2;149;935;4;176;388;10;3;84;538;4;121;489;13;4;105;713;5;110;227;7;5;342;2229;4;177;145;384;609;19;6;217;1371;4;111;112;463;432;19;7;129;872;4;160;412;12;8;141;889;4;170;456;11;9;73;459;4;95;473;8
15.12.18;14:10:00;1;417;6483;0;2;154;923;4;184;392;10;3;91;531;4;127;493;13;4;109;704;5;113;233;7;5;356;2201;4;184;155;384;609;19;6;226;1352;4;128;126;463;432;19;7;148;862;4;172;421;12;8;142;878;4;171;420;11;9;78;453;4;102;473;9
15.12.18;14:05:00;1;422;6448;0;2;157;910;4;186;385;10;3;91;523;4;127;477;13;4;113;695;5;117;236;7;5;362;2171;4;183;161;384;609;19;6;235;1333;4;112;112;463;432;19;7;148;849;4;168;384;12;8;137;866;4;166;370;11;9;81;446;4;106;466;9
15.12.18;14:00:00;1;426;6413;0;2;168;897;4;194;387;10;3;98;516;4;136;491;13;4;120;686;5;125;229;7;5;383;2141;4;192;168;403;609;19;6;238;1314;4;83;82;463;432;19;7;145;837;4;184;398;12;8;160;855;4;189;407;11;9;85;440;4;110;492;9
15.12.18;13:55:00;1;706;6377;0;2;173;883;4;202;390;10;3;102;507;4;140;506;13;4;127;676;5;132;235;7;5;402;2109;4;201;173;409;609;19;6;251;1294;4;108;107;463;432;19;7;161;825;4;190;404;12;8;160;841;4;201;434;11;9;87;432;4;112;469;9
15.12.18;13:50:00;1;461;6313;0;2;182;868;4;212;397;10;3;107;499;4;144;512;13;4;135;665;5;141;234;7;5;415;2076;4;213;180;403;609;19;6;260;1273;4;107;106;463;432;19;7;173;811;4;193;386;12;8;177;828;4;213;462;11;9;96;425;4;117;476;9
15.12.18;13:45:00;1;519;6274;0;2;191;853;4;217;399;10;3;112;490;4;150;508;13;4;145;654;5;151;231;7;5;426;2041;4;216;180;405;609;19;6;267;1251;4;134;132;463;432;19;7;185;797;4;207;405;12;8;162;813;4;181;374;9;9;99;417;4;122;483;9
15.12.18;13:40:00;1;528;6231;0;2;204;837;4;232;383;10;3;121;481;4;162;514;13;4;157;642;5;163;236;7;5;456;2006;4;226;192;415;609;19;6;285;1228;4;150;146;463;432;19;7;166;782;4;191;367;9;8;204;797;4;240;467;11;9;111;409;4;135;498;9
15.12.18;13:35:00;1;533;6186;0;2;199;820;4;229;397;10;3;115;470;4;154;531;13;4;150;629;5;156;236;7;5;439;1968;4;222;188;391;609;19;6;284;1205;4;161;155;463;432;19;7;200;764;4;232;454;12;8;196;780;4;231;437;11;9;107;400;4;133;509;9
15.12.18;13:30:00;1;498;6142;0;2;212;804;4;242;397;10;3;126;461;4;164;503;13;4;166;616;5;172;236;7;5;480;1931;4;232;203;408;661;19;6;295;1181;4;156;151;463;432;19;7;205;748;4;236;436;12;8;205;764;4;238;433;11;9;112;391;4;138;511;9
15.12.18;13:25:00;1;487;6100;0;2;225;786;4;254;394;10;3;131;450;4;171;524;13;4;175;603;5;182;234;7;5;508;1891;4;249;218;417;667;19;6;306;1156;4;176;167;463;432;19;7;214;731;4;255;466;12;8;222;747;4;258;463;11;9;118;381;4;148;521;9
15.12.18;13:20:00;1;1060;6057;0;2;223;767;4;252;392;10;3;131;439;4;170;525;13;4;176;588;5;183;236;7;5;507;1848;4;258;221;411;635;19;6;307;1130;4;170;168;463;432;19;7;216;713;4;252;464;12;8;227;728;4;260;466;11;9;118;372;4;145;525;9